Regional Weather Roundup
Issued by NWS Lake Charles, LA

Home | Current Version | Previous Version | Text Only | Print | Product List | Glossary On
Versions: 1 2 3 4 5 6 7 8 9 10 11 12 13 14 15 16 17 18 19 20 21 22 23 24 25 26 27 28 29 30 31 32 33 34 35 36 37 38 39 40 41 42 43 44 45 46 47 48 49
000
ASUS44 KLCH 270610
RWRLCH
RWRLCH
REGIONAL WEATHER ROUNDUP
NATIONAL WEATHER SERVICE LAKE CHARLES LA
100 AM CDT WED MAY 27 2015

Note: "fair" indicates few or no clouds below 12,000 feet with no
significant weather and/or obstructions to visibility.


ACROSS SOUTHEAST TEXAS

CITY           SKY/WX    TMP DP  RH WIND       PRES   REMARKS
BEAUMONT       CLOUDY    79  73  82 S9        30.04R
BEAUMONT CITY  CLOUDY    76  73  88 SE3       30.05R
ORANGE         CLOUDY    78  71  78 S3        30.06R
JASPER         PTCLDY    76  72  89 CALM      30.09R
$$

ACROSS CENTRAL LOUISIANA

CITY           SKY/WX    TMP DP  RH WIND       PRES   REMARKS
LEESVILLE      MOCLDY    74  71  90 E5        30.07S
FULLERTON      MOCLDY    75  70  84 CALM      30.06R
ALEXANDRIA INT MOCLDY    71  69  93 CALM      30.07R
ESLER FIELD    MOCLDY    69  68  96 CALM      30.08R
DERIDDER       CLOUDY    74  72  93 CALM      30.09R
OAKDALE        MOCLDY    71  70  95 CALM      30.07R
OPELOUSAS        N/A     74  71  89 CALM      30.07R
$$

ACROSS SOUTHWEST AND SOUTH CENTRAL LOUISIANA

CITY           SKY/WX    TMP DP  RH WIND       PRES   REMARKS
SULPHUR        CLOUDY    78  74  90 E3        30.06R
LAKE CHARLES   PTCLDY    76  72  87 CALM      30.04S
CHENNAULT INT  CLOUDY    75  72  91 CALM      30.05R
CAMERON PHI    MOCLDY    81  73  78 S12G20    30.06S
DEQUINCY       CLOUDY    73  73 100 CALM      30.06R
JENNINGS         N/A     76  72  87 SE3       30.05S
LAFAYETTE      PTCLDY    75  72  90 CALM      30.06S
NEW IBERIA     CLEAR     75  72  90 SE3       30.07S
ABBEVILLE        N/A     74  73  95 CALM      30.06R
PATTERSON      CLEAR     75  72  88 SE5       30.07F
SALT POINT       N/A     76  74  93 SE5       30.04F
$$

SELECTED SITES ACROSS THE REGION

CITY           SKY/WX    TMP DP  RH WIND       PRES   REMARKS
HOUSTON BUSH   CLOUDY    78  74  87 SE10      30.02S
HOUSTON HOBBY  CLOUDY    79  75  87 SE7       30.02R
GALVESTON      CLOUDY    79  78  97 SE15      30.04R
COLLEGE STAT   CLOUDY    77  72  84 SE7       30.03R
CONROE         CLOUDY    75  71  87 SE3       30.04S
HUNTSVILLE     CLOUDY    76  71  85 VRB3      30.05R
LUFKIN         CLOUDY    75  70  84 E3        30.06R
SHREVEPORT     CLOUDY    73  70  90 S6        30.06S
MONROE         RAIN      73  71  93 N3        30.09R
NATCHEZ MS     MOCLDY    73  68  83 SE6       30.09R
BATON ROUGE    CLEAR     73  72  96 E5        30.07F
N.O. INTL ARPT PTCLDY    77  72  84 SE5       30.07F
SLIDELL        CLEAR     73  72  96 CALM      30.08F
$$

MARINE REPORTS

STATION/POSITION TIME  TEMP    WIND        PRES    VSBY  WAVE
                       AIR SEA DIR/SP/G                  HT/PER
                 (UTC) (F)     (DEG/KT/KT) (MB)    (MI)  (FT/S)
BUOY 30 S HIGH I 0550   80 80  140/ 16/ 19 1015.9S         4/ 7
SEA RIM ST PARK  0600   79     150/ 14/ 17 1017.6R
PORT ARTHUR      0500      76  150/  8/ 12 1017.1F
SABINE PASS N    0500   80 78  160/ 12/ 16 1017.2F
TEXAS POINT      NOT AVBL
CALCASIEU PASS   0500   80 81  170/ 15/ 18   N/A
LK CHARLES BEACH 0500   78 76              1017.4F
MARSH ISLAND     0500   81     160/ 12/ 13   N/A           0
FRESH WATER LOCK 0500   79 81  140/  7/  9 1017.6F
AMERADA PASS     0500   76 78  120/  2/  4 1018.4F
$$



USA.gov is the U.S. government's official web portal to all federal, state and local government web resources and services.